Torna al catalogo

THORAD AGENA D DEB

AttivoPO
NORAD 4929·DEBRIS·🇺🇸 United States

Lanciato Apr 8, 1970 da Vandenberg Space Force Base

Loading…

Prossimi Passaggi

TLE

Source: Space-Track
1 04929U 70025FV  26229.92789116  .00000172  00000-0  74893-3 0  9996
2 04929  99.6711 211.8457 0449693 303.1528  80.1408 12.65760090592344

Traccia THORAD AGENA D DEB in tempo reale con AllMySat

Download on the App Store